Flag for Canada Weather past 2 weeks in Thunder Bay, Ontario, Canada

Now
32 °F

Low clouds.


Feels Like: 22 °F
Forecast: N/A
Wind: 14 mph from East

Location: Thunder Bay

Current Time: Apr 1, 2015 at 5:20:24 PM

Latest Report: Apr 1, 2015 at 4:00 PM


Visibility: 10 mi

Pressure: 29.80 "Hg

Humidity: 100%

Dew point: 32 °F

Location of Thunder BayLocation

Historic Weather in Thunder Bay — Graph

°F

Thunder Bay temperature yesterday

Maximum temperature yesterday: 30 °F (at 1:00 PM)
Minimum temperature yesterday: 21 °F (at 3:00 AM)
Average temperature yesterday: 28 °F

Past Weeks' High & Low Weather Summary

 TemperatureHumidityPressure
High43 °F (Mar 19, 3:00 PM)100% (Mar 25, 9:00 PM)30.46 "Hg (Mar 25, 9:00 PM)
Low1 °F (Mar 27, 7:00 AM)25% (Mar 17, 4:00 PM)29.41 "Hg (Mar 29, 3:00 PM)
Average26 °F69%30.08 "Hg
* Reported Mar 17 4:00 PM — Apr 1 4:00 PM, Thunder Bay, Weather by CustomWeather, © 2015

Note: Actual official high and low records may vary slightly from our data, if they occured in-between our weather recording intervals... More about our weather records

Advertising

Thunder Bay weather history for previous 24 hours

 ConditionsComfort  
Time TempWeatherWind HumidityBarometerVisibility
4:00 PM
Wed, Apr 1
32 °FLow clouds.14 mph100%29.80 "Hg10 mi
3:00 PM32 °FLow clouds.18 mph93%29.84 "Hg10 mi
2:00 PM30 °FLow clouds.16 mph100%29.89 "Hg10 mi
1:00 PM30 °FSleet. More clouds than sun.16 mph100%29.93 "Hg4 mi
12:00 PM28 °FLight freezing rain. Ice fog.9 mph100%29.98 "Hg4 mi
11:00 AM28 °FIce fog.10 mph100%30.00 "Hg6 mi
10:49 AM27 °FIce fog.9 mph100%30.00 "Hg6 mi
10:00 AM27 °FLight snow. Ice fog.8 mph100%30.03 "Hg3 mi
9:00 AM25 °FIce fog.7 mph100%30.04 "Hg1 mi
8:00 AM25 °FIce fog.7 mph100%30.03 "Hg1 mi
7:00 AM25 °FLight snow. Ice fog.No wind100%30.03 "Hg2 mi
6:00 AM25 °FLight snow. Ice fog.2 mph93%30.03 "Hg2 mi
5:00 AM23 °FLight freezing rain. Ice fog.No wind100%30.03 "Hg1 mi
4:00 AM21 °FIce fog.3 mph100%30.03 "Hg0 mi
3:51 AM21 °FIce fog.3 mph100%30.03 "Hg0 mi
3:00 AM19 °FIce fog.3 mph100%30.03 "Hg3 mi
2:00 AM25 °FLight fog.No wind100%30.03 "Hg12 mi
1:00 AM27 °FOvercast.3 mph100%30.04 "Hg10 mi
12:00 AM27 °FOvercast.2 mph100%30.03 "Hg15 mi
11:00 PM
Tue, Mar 31
27 °FPassing clouds.2 mph100%30.04 "Hg15 mi
10:00 PM28 °FPassing clouds.3 mph93%30.04 "Hg15 mi
9:00 PM30 °FOvercast.8 mph93%30.02 "Hg15 mi
8:00 PM30 °FLow clouds.6 mph93%30.02 "Hg20 mi
7:00 PM30 °FLight snow. Low clouds.9 mph93%30.00 "Hg15 mi
6:00 PM30 °FLight snow. Low clouds.12 mph93%29.98 "Hg15 mi
5:00 PM30 °FLight snow. More clouds than sun.12 mph93%29.95 "Hg10 mi
Weather by CustomWeather, © 2015

See weather overviewHow to use our weather pages